This is the latest recevied weather packets stored in our database for station/object OZ0AJ-13. If no packets are shown the sender has not sent any weather packets the latest 10 day(s).
| Time | Temp. | Humidity | Pressure | Rain* | Wind** | Luminosity | Snow |
|---|---|---|---|---|---|---|---|
| 1777972230 | 11.11° C | 70% | 1012.5 hPa | 0 mm | - | - | - |
| 1777971626 | 11.11° C | 71% | 1012.5 hPa | 0 mm | - | - | - |
| 1777971022 | 11.11° C | 71% | 1012.7 hPa | 0 mm | - | - | - |
| 1777970418 | 11.11° C | 71% | 1012.6 hPa | 0 mm | - | - | - |
| 1777969835 | 11.67° C | 71% | 1012.6 hPa | 0 mm | - | - | - |
| 1777969230 | 11.11° C | 73% | 1012.7 hPa | 0 mm | - | - | - |
| 1777968626 | 10.56° C | 74% | 1012.5 hPa | 0 mm | - | - | - |
| 1777968023 | 10.56° C | 78% | 1012.5 hPa | 0 mm | - | - | - |
| 1777967419 | 9.44° C | 80% | 1012.6 hPa | 0 mm | - | - | - |
| 1777966835 | 9.44° C | 81% | 1012.7 hPa | 0 mm | - | - | - |
| 1777966231 | 9.44° C | 82% | 1012.7 hPa | 0 mm | - | - | - |
| 1777965627 | 9.44° C | 81% | 1012.7 hPa | 0 mm | - | - | - |
| 1777965023 | 9.44° C | 83% | 1012.7 hPa | 0 mm | - | - | - |
| 1777964419 | 8.89° C | 82% | 1012.8 hPa | 0 mm | - | - | - |
| 1777963816 | 8.89° C | 83% | 1012.8 hPa | 0 mm | - | - | - |
| 1777963232 | 8.89° C | 84% | 1012.8 hPa | 0 mm | - | - | - |
| 1777962628 | 8.89° C | 86% | 1012.7 hPa | 0 mm | - | - | - |
| 1777962024 | 8.89° C | 88% | 1012.7 hPa | 0 mm | - | - | - |
| 1777961420 | 8.33° C | 89% | 1012.7 hPa | 0 mm | - | - | - |
| 1777960816 | 7.78° C | 89% | 1012.7 hPa | 0 mm | - | - | - |
| 1777960232 | 7.78° C | 89% | 1012.6 hPa | 0 mm | - | - | - |
| 1777959628 | 7.78° C | 90% | 1012.6 hPa | 0 mm | - | - | - |
| 1777959024 | 7.22° C | 91% | 1012.6 hPa | 0 mm | - | - | - |
| 1777958420 | 6.67° C | 92% | 1012.5 hPa | 0 mm | - | - | - |
| 1777957816 | 6.11° C | 93% | 1012.5 hPa | 0 mm | - | - | - |
* Rain latest hour (hover to see other rain measurements)
** Current wind speed in m/s (hover to see current wind gust speed)